User: anonymous   Login
Location: Libas
(9.8833°N, 125.9833°E)
Time: 14:54:46
(UTC+00:00)
Language:

Cosmos 1140 Rocket - Orbit

View from above orbital plane
View from above orbital plane
View from above satellite
View from above satellite

Ground track
Ground track

The orbit data is extracted from the following two-line orbital elements,

1 11574U 79089B   21020.28172119 -.00000003  00000-0  74374-5 0  9991
2 11574  74.0715 315.0368 0017147 246.7863 113.1487 14.40784644166242
Epoch (UTC): 20 January 2021 06:45:40
Eccentricity: 0.0017147
inclination: 74.0715°
perigee height: 743 km
apogee height: 768 km
right ascension of ascending node: 315.0368°
argument of perigee: 246.7863°
revolutions per day: 14.40784644
mean anomaly at epoch: 113.1487°
orbit number at epoch: 16624

The dashed part of the orbit path shows where the satellite is in the earth's shadow,  

DLR